Regional Weather Roundup
Issued by NWS

Home | Current Version | Previous Version | Text Only | Print | Product List | Glossary On
Versions: 1 2 3 4 5 6 7 8 9 10 11 12 13 14 15 16 17 18 19 20 21 22 23 24 25 26 27 28 29 30 31 32 33 34 35 36 37 38 39 40 41 42 43 44 45 46 47 48 49 50
000
ASUS43 KLOT 280513
RWRIL

ILLINOIS REGIONAL WEATHER ROUNDUP
NATIONAL WEATHER SERVICE CHICAGO/ROMEOVILLE IL
1200 AM CDT THU MAY 28 2015

NOTE: "FAIR" INDICATES FEW OR NO CLOUDS BELOW 12,000 FEET WITH NO
SIGNIFICANT WEATHER AND/OR OBSTRUCTIONS TO VISIBILITY.

* THESE STATIONS ARE NOT UNDER NWS QUALITY CONTROL. THEY ALSO MAY NOT
  REPORT WEATHER SUCH AS PRECIPITATION OR FOG.

ILZ001-002-007-009-015-016-024-280600-
NORTHWEST ILLINOIS

CITY           SKY/WX    TMP DP  RH WIND       PRES   REMARKS
MOLINE         CLEAR     60  56  86 CALM      30.13R
STERLING*      CLEAR     64  57  77 CALM      30.13S
SAVANNA*       CLEAR     63  60  88 SE3       30.13R
$$

ILZ003-004-008-010-011-017-018-280600-
NORTH CENTRAL ILLINOIS

CITY           SKY/WX    TMP DP  RH WIND       PRES   REMARKS
ROCKFORD       PTCLDY    63  57  81 CALM      30.14S
FREEPORT*      CLEAR     62  57  84 S7        30.15R
ROCHELLE*      CLEAR     59  57  93 CALM      30.14S
DE KALB*       CLEAR     61  54  76 CALM      30.15S
PERU*          CLEAR     63  57  79 CALM      30.14S
$$

ILZ005-006-012>014-019>023-280600-
NORTHEAST ILLINOIS

CITY           SKY/WX    TMP DP  RH WIND       PRES   REMARKS
CHICAGO-OHARE  CLEAR     61  55  81 S6        30.13R
CHICAGO-MIDWAY CLEAR     64  55  72 S3        30.13R
AURORA         CLEAR     58  54  86 CALM      30.14R
LANSING*       CLEAR     58  55  88 CALM      30.14S
JOLIET*        CLEAR     59  57  94 CALM      30.14R
WAUKEGAN       CLEAR     57  55  93 S3        30.13R
DUPAGE AIRPORT CLEAR     58  55  90 CALM      30.13R
KANKAKEE*      CLEAR     58  54  86 CALM      30.15R
WHEELING       CLEAR     58  54  86 CALM      30.15R
MORRIS*        CLEAR     60  56  84 SW3       30.12R
ROMEOVILLE*    CLEAR     60  54  79 CALM      30.14R
NORTHERLY ISL    N/A     59  54  83 S1          N/A
$$

LMZ740>746-280600-
SOUTHERN LAKE MICHIGAN

STATION/POSITION SKY/WX   TEMP    WIND        PRES    VSBY  WAVE
                          AIR SEA DIR/SP/G                  HT/PER
                          (F)     (DEG/KT/KT) (MB)    (MI)  (FT/S)
SOUTHERN BUOY              42 38  180/  8/  8 1020.7R         0
HARRISON CRIB              59     180/  9/ 10   N/A
BURNHAM HARBOR             59      CALM  /  4   N/A
CALUMET HARBOR             62     210/  1/  2   N/A
BURNS HARBOR               62     180/  3/  4 1021.0R
MICHIGAN CITY              60     120/  4/  4   N/A
MICHIGAN CITY 6N           57 53  140/  2/  2   N/A           0
ST. JOSEPH                 56 56  180/  2/  4   N/A           1
$$

ILZ025>027-034>036-040-047-049-050-058-095>099-280600-
WEST-CENTRAL ILLINOIS

CITY           SKY/WX    TMP DP  RH WIND       PRES   REMARKS
QUINCY         PTCLDY    67  57  70 SE5       30.14R
GALESBURG*     PTCLDY    60  57  90 SE3       30.15R
MACOMB*        PTCLDY    62  59  91 CALM      30.17R
JACKSONVILLE*  CLEAR     64  60  86 CALM      30.14R
PITTSFIELD*    CLEAR     63  60  89 CALM      30.15R
$$

ILZ028>032-037-038-041>044-048-051>054-059>061-280600-
CENTRAL ILLINOIS

CITY           SKY/WX    TMP DP  RH WIND       PRES   REMARKS
PONTIAC        CLEAR     61  58  88 CALM      30.16R
BLOOMINGTON    PTCLDY    65  56  72 NE7       30.16R
DECATUR        LGT RAIN  63  58  83 CALM      30.14R
PEORIA         PTCLDY    65  57  75 NE3       30.14R
LACON*         PTCLDY    60  57  90 CALM      30.13S
LINCOLN*       PTCLDY    63  57  81 CALM      30.13R
SPRINGFIELD    PTCLDY    63  58  83 CALM      30.14R
TAYLORVILLE    CLEAR     61  59  94 CALM      30.14R
$$

ILZ033-039-045-046-055>057-062-063-280600-
EAST-CENTRAL ILLINOIS

CITY           SKY/WX    TMP DP  RH WIND       PRES   REMARKS
CHAMPAIGN      CLEAR     62  54  74 N6        30.15R
DANVILLE*      PTCLDY    61  56  84 NE3       30.12R
RANTOUL*       CLEAR     63  55  76 CALM      30.15R
PARIS*         PTCLDY    62  56  81 CALM      30.15R
$$

ILZ079-100>102-280600-
SOUTHWEST ILLINOIS

CITY           SKY/WX    TMP DP  RH WIND       PRES   REMARKS
ALTON          CLEAR     63  63 100 CALM      30.14R
BELLEVILLE     PTCLDY    64  64  99 W2        30.12R
CAHOKIA*       CLEAR     64  60  87 CALM      30.13R
SPARTA*        MOCLDY    67  62  83 CALM      30.13F
$$

ILZ064>066-069>071-074>076-080>082-084>086-088>090-092>094-280600-
SOUTH-CENTRAL ILLINOIS

CITY           SKY/WX    TMP DP  RH WIND       PRES   REMARKS
CARBONDALE     MOCLDY    70  67  90 S6        30.12F
CAIRO*         CLOUDY    70  68  93 S5        30.15R
EFFINGHAM*     PTCLDY    62  58  87 CALM      30.15R
MARION         MOCLDY    68  68 100 CALM      30.15R
MT. VERNON     CLOUDY    66  63  88 CALM      30.14S
CENTRALIA*     MOCLDY    62  60  93 CALM      30.13S
SALEM*         PTCLDY    67  60  80 CALM      30.14R
METROPOLIS*    MOCLDY    67  67 100 CALM      30.15R
$$

ILZ067-068-072-073-078-083-087-091-280600-
SOUTHEAST ILLINOIS

CITY           SKY/WX    TMP DP  RH WIND       PRES   REMARKS
LAWRENCEVILLE  CLOUDY    69  64  84 SW5       30.14R
FLORA*         CLOUDY    68  62  80 CALM      30.14S
FAIRFIELD*     CLOUDY    69  68  98 CALM      30.13S
HARRISBURG*    MOCLDY    68  67  97 S3        30.15R
ROBINSON*      MOCLDY    68  60  76 CALM      30.14R
CARMI*         CLOUDY    66  61  82 CALM      30.14R
$$

ABBREVIATIONS USED IN REMARKS
   TC - TEMPERATURE IN CELSIUS
  WCI - WIND CHILL INDEX
   HX - HEAT INDEX
  VSB - VISIBILITY
$$



USA.gov is the U.S. government's official web portal to all federal, state and local government web resources and services.